sat.trackr.live / text

‹ back to catalog

CZ-8 R/B

NORAD 69122 · 2026-108U

ROCKET_BODY UNKNOWN UNKNOWN

§ Identity

Operator
Country
PRC
Launch date
2026-05-17
Launch site
WSC
Launch vehicle
Mass (kg)
RCS (m²)

External: N2YO · Heavens-Above · Gunter

§ Orbital elements

Epoch: 2026-06-16T03:15:38.339424Z

Period
100.06 min
Inclination
89.0107°
Eccentricity
0.0067856
Mean motion
14.39194418 rev/d
Perigee alt
712.7 km
Apogee alt
809.6 km
Semi-major
7,139.3 km
B*
5.4419e-5
RAAN
22.2220°
Arg perigee
23.8601°
Mean anomaly
336.5719°
Rev number
425

§ Raw data

CZ-8 R/B1 69122U 26108U   26167.13586041  .00000189  00000+0  54419-4 0  99912 69122  89.0107  22.2220 0067856  23.8601 336.5719 14.39194418  4258

JSON: /api/v1/satellites/69122 · /tle

For live sub-satellite position, see the globe view (requires WebGL).

§ Visibility from observer

Set your observer location to see the next 7 days of passes ≥ 10°. The values pass through the URL so the page stays shareable.

No JS? Fill the form by hand. The geolocation button needs JavaScript.